Location: Dover
(39.1580°N, 75.5250°W)
Time: 11:59:03
(UTC-04:00)

ISS - All Passes

Search period start: 20 September 2014 00:00
Search period end: 30 September 2014 00:00
Orbit: 413 x 417 km, 51.6° (Epoch: 20 September)

Date Brightness Start Highest point End Pass type
(mag) Time Alt. Az. Time Alt. Az. Time Alt. Az.
20 Sep - 01:39:29 10° SSE 01:41:20 14° SE 01:43:12 10° E night (unlit)
20 Sep - 03:14:26 10° WSW 03:17:43 57° NW 03:21:00 10° NE visible
20 Sep - 04:53:08 10° NW 04:55:00 14° NNW 04:56:52 10° NNE visible
20 Sep - 08:08:04 10° NNW 08:10:38 20° NNE 08:13:11 10° ENE daylight
20 Sep - 09:44:18 10° WNW 09:47:36 62° SW 09:50:52 10° SE daylight
21 Sep - 02:25:32 10° SW 02:28:51 79° SE 02:32:11 10° NE night (unlit)
21 Sep - 04:03:31 10° WNW 04:05:54 18° NNW 04:08:18 10° NNE visible
21 Sep - 07:19:29 10° NNW 07:21:33 15° NNE 07:23:37 10° ENE daylight
21 Sep - 08:55:26 10° NW 08:58:45 71° NE 09:02:04 10° ESE daylight
21 Sep - 10:33:54 10° WSW 10:35:02 11° SW 10:36:09 10° SSW daylight
22 Sep - 01:36:53 10° SSW 01:40:02 41° SE 01:43:11 10° ENE night (unlit)
22 Sep - 03:14:01 10° W 03:16:50 25° NNW 03:19:40 10° NNE visible
22 Sep - 04:53:49 10° NNW 04:54:28 10° N 04:55:07 10° N visible
22 Sep - 06:30:55 10° NNW 06:32:23 12° NNE 06:33:52 10° NE daylight
22 Sep - 08:06:38 10° NW 08:09:49 40° NNE 08:12:58 10° ESE daylight
22 Sep - 09:43:47 10° W 09:46:20 21° SW 09:48:52 10° S daylight
23 Sep - 00:48:34 10° S 00:51:14 22° SE 00:53:54 10° ENE night (unlit)
23 Sep - 02:24:39 10° WSW 02:27:47 38° NNW 02:30:56 10° NE night (unlit)
23 Sep - 04:03:51 10° NW 04:05:14 12° NNW 04:06:37 10° NNE visible
23 Sep - 05:42:23 10° N 05:43:09 11° N 05:43:56 10° NNE visible
23 Sep - 07:17:53 10° NNW 07:20:46 26° NNE 07:23:38 10° E daylight
23 Sep - 08:54:25 10° WNW 08:57:32 37° SW 09:00:37 10° SSE daylight
24 Sep - 00:00:57 10° SSE 00:02:27 13° SE 00:03:57 10° ESE night (unlit)
24 Sep - 01:35:28 10° WSW 01:38:46 65° NW 01:42:05 10° NE night (unlit)
24 Sep - 03:14:00 10° NW 03:16:00 15° NNW 03:17:59 10° NNE visible
24 Sep - 06:29:09 10° NNW 06:31:37 19° NNE 06:34:05 10° ENE daylight
24 Sep - 08:05:19 10° NW 08:08:38 72° SW 08:11:56 10° SE daylight
25 Sep - 00:46:29 10° SW 00:49:46 69° SE 00:53:06 10° NE night (unlit)
25 Sep - 02:24:16 10° WNW 02:26:46 19° NNW 02:29:16 10° NNE night (unlit)
25 Sep - 05:40:26 10° NNW 05:42:23 15° NNE 05:44:20 10° NE visible
25 Sep - 07:16:19 10° NW 07:19:37 62° NE 07:22:55 10° ESE daylight
25 Sep - 08:54:20 10° W 08:55:57 13° SW 08:57:33 10° SSW daylight
25 Sep - 23:57:45 10° SSW 00:00:49 36° SE 00:03:54 10° ENE night (unlit)
26 Sep - 01:34:39 10° W 01:37:33 27° NNW 01:40:28 10° NNE night (unlit)
26 Sep - 03:14:19 10° NNW 03:15:09 11° N 03:15:59 10° N visible
26 Sep - 04:51:44 10° NNW 04:53:04 12° NNE 04:54:24 10° NE visible
26 Sep - 06:27:24 10° NW 06:30:31 36° NNE 06:33:38 10° E visible
26 Sep - 08:04:22 10° WNW 08:07:05 23° SW 08:09:47 10° S daylight
26 Sep - 23:09:24 10° S 23:11:53 20° SE 23:14:23 10° E night (unlit)
27 Sep - 00:45:12 10° WSW 00:48:23 42° NNW 00:51:34 10° NE night (unlit)
27 Sep - 02:24:14 10° NW 02:25:46 13° NNW 02:27:18 10° NNE night (unlit)
27 Sep - 04:03:05 10° N 04:03:40 10° N 04:04:15 10° NNE visible
27 Sep - 05:38:31 10° NNW 05:41:19 24° NNE 05:44:06 10° E visible
27 Sep - 07:14:57 10° WNW 07:18:07 43° SW 07:21:17 10° SSE daylight
27 Sep - 22:22:06 10° SE 22:22:59 11° SE 22:23:52 10° ESE night (unlit)
27 Sep - 23:55:54 10° WSW 23:59:14 74° NW 00:02:33 10° NE night (unlit)
28 Sep - 01:34:17 10° WNW 01:36:23 16° NNW 01:38:30 10° NNE night (unlit)
28 Sep - 04:49:39 10° NNW 04:52:00 18° NNE 04:54:21 10° ENE visible
28 Sep - 06:25:44 10° NW 06:29:04 83° SW 06:32:22 10° SE visible
28 Sep - 23:06:50 10° SW 23:10:06 59° SE 23:13:23 10° ENE night (unlit)
29 Sep - 00:44:26 10° WNW 00:47:02 21° NNW 00:49:38 10° NNE night (unlit)
29 Sep - 04:00:48 10° NNW 04:02:37 14° NNE 04:04:25 10° NE visible
29 Sep - 05:36:37 10° NW 05:39:54 54° NE 05:43:09 10° ESE visible
29 Sep - 07:14:17 10° W 07:16:16 15° SW 07:18:14 10° SSW daylight
29 Sep - 22:18:03 10° SSW 22:21:01 31° SE 22:24:00 10° ENE night (unlit)
29 Sep - 23:54:42 10° W 23:57:41 30° NNW 00:00:00 14° NNE night (unlit)
